Location: ?ejkovice
(49.0137°N, 14.3821°E)
Time: 05:15:38
(UTC+00:00)

Cosmos 1908 Rocket - Pass Details

Date: 23 May 2024
Orbit: 602 x 629 km, 82.5° (Epoch: 15 June)

Event Time Altitude Azimuth Distance (km) Brightness Sun altitude
Rises 00:13:28 0° 351° (N) 2,923 8.1 -18.4°
Reaches altitude 10° 00:15:43 10° 354° (N) 2,008 7.2 -18.3°
Maximum altitude 00:20:10 73° 79° (E) 655 3.7 -18.1°
Enters shadow 00:22:24 28° 159° (SSE) 1,154 4.5 -17.9°
